Weather History for Marion Regional, IL

Change the Weather History Date:

Saturday, December 15, 2012

  Actual Average Record
Temperature  
Mean Temperature 54 °F -  
Max Temperature 60 °F 44 °F 69 °F (1971)
Min Temperature 48 °F 26 °F 4 °F (1985)
Degree Days  
Heating Degree Days 11    
Growing Degree Days 4 (Base 50)    
Moisture  
Dew Point 48 °F    
Average Humidity 79    
Maximum Humidity 100    
Minimum Humidity 54    
Precipitation  
Precipitation 0.04 in - - ()
Sea Level Pressure  
Sea Level Pressure 29.86 in    
Wind  
Wind Speed 12 mph (South)    
Max Wind Speed 21 mph    
Max Gust Speed 30 mph    
Visibility 10 miles    
Events Rain    
Averages and records for this station are not official NWS values.
T = Trace of Precipitation, MM = Missing Value Source: NWS Daily Summary

Daily Weather History Graph

Daily Weather History Graph

Search for Another Location

Airport:

Trip Planner

Search our weather history database for the weather conditions in past years. The results will help you decide how hot, cold, wet, or windy it might be!

Date:

Astronomy

Dec. 15, 2012 Rise Set
Actual Time 7:04 AM CST 4:38 PM CST
Civil Twilight 6:35 AM CST 5:07 PM CST
Nautical Twilight 6:02 AM CST 5:40 PM CST
Astronomical Twilight 5:30 AM CST 6:12 PM CST
Moon 8:59 AM CST (12/15) 7:40 PM CST (12/15)
Length of Visible Light 10h 32m
Length of Day
9h 33m
Waxing Crescent, 8% of the Moon is Illuminated
Dec 15
Waxing Crescent
Dec 19
First Quarter
Dec 28
Full
Jan 4
Last Quarter
Jan 11
New

Hourly Weather History & Observations

Time (CST) Temp. Dew Point Humidity Pressure Visibility Wind Dir Wind Speed Gust Speed Precip Events Conditions
12:15 AM 51.8 °F 35.6 °F 54% 30.04 in 10.0 mi SSE 9.2 mph - N/A   Mostly Cloudy
12:35 AM 51.8 °F 35.6 °F 54% 30.03 in 10.0 mi SSE 9.2 mph 16.1 mph N/A   Overcast
12:55 AM 51.8 °F 37.4 °F 58% 30.03 in 10.0 mi SSE 10.4 mph - N/A   Overcast
1:15 AM 51.8 °F 37.4 °F 58% 30.02 in 10.0 mi South 11.5 mph - N/A   Overcast
1:35 AM 51.8 °F 37.4 °F 58% 30.02 in 10.0 mi SSE 11.5 mph - N/A   Overcast
1:55 AM 51.8 °F 37.4 °F 58% 30.01 in 10.0 mi South 9.2 mph - N/A   Overcast
2:15 AM 50.0 °F 37.4 °F 62% 30.01 in 10.0 mi South 10.4 mph - N/A   Overcast
2:35 AM 50.0 °F 37.4 °F 62% 30.00 in 10.0 mi South 10.4 mph - N/A   Overcast
2:55 AM 50.0 °F 41.0 °F 71% 30.00 in 10.0 mi South 13.8 mph - N/A Rain Light Rain
3:15 AM 50.0 °F 41.0 °F 71% 30.01 in 10.0 mi South 11.5 mph - N/A Rain Light Rain
3:35 AM 50.0 °F 42.8 °F 76% 29.99 in 7.0 mi South 13.8 mph - 0.01 in Rain Rain
3:55 AM 48.2 °F 42.8 °F 82% 29.97 in 10.0 mi SSE 11.5 mph 17.3 mph 0.03 in Rain Light Rain
4:15 AM 48.2 °F 44.6 °F 87% 29.97 in 10.0 mi SSE 9.2 mph - N/A   Overcast
4:35 AM 48.2 °F 44.6 °F 87% 29.97 in 7.0 mi SSE 10.4 mph - 0.01 in Rain Light Rain
4:55 AM 48.2 °F 44.6 °F 87% 29.95 in 10.0 mi SSE 11.5 mph 17.3 mph 0.01 in Rain Light Rain
5:15 AM 48.2 °F 46.4 °F 93% 29.94 in 10.0 mi South 12.7 mph 20.7 mph N/A   Overcast
5:35 AM 48.2 °F 46.4 °F 93% 29.90 in 10.0 mi SE 12.7 mph 24.2 mph N/A   Overcast
6:55 AM 50.0 °F 46.4 °F 87% 29.92 in 7.0 mi South 13.8 mph - N/A   Overcast
7:50 AM 50.0 °F 46.4 °F 87% 29.88 in 15.0 mi SSE 17.3 mph - N/A   Overcast
8:55 AM 51.8 °F 46.4 °F 82% 29.85 in 7.0 mi South 11.5 mph 19.6 mph N/A   Overcast
9:55 AM 50.0 °F 48.2 °F 94% 29.85 in 2.5 mi South 17.3 mph 25.3 mph N/A   Drizzle
10:54 AM 51.8 °F 51.8 °F 100% 29.82 in 3.0 mi South 15.0 mph 20.7 mph N/A   Drizzle
11:56 AM 53.6 °F 51.8 °F 94% 29.77 in 10.0 mi South 16.1 mph 23.0 mph N/A   Overcast
12:55 PM 55.4 °F 53.6 °F 94% 29.75 in 7.0 mi SSW 16.1 mph 26.5 mph N/A   Overcast
1:55 PM 55.4 °F 55.4 °F 100% 29.73 in 10.0 mi South 16.1 mph 27.6 mph N/A   Overcast
2:55 PM 57.2 °F 55.4 °F 94% 29.73 in 10.0 mi South 17.3 mph 27.6 mph N/A   Overcast
3:55 PM 59.0 °F 55.4 °F 88% 29.72 in 10.0 mi SSW 17.3 mph 29.9 mph N/A   Overcast
4:55 PM 60.8 °F 53.6 °F 77% 29.73 in 10.0 mi SSW 17.3 mph 28.8 mph N/A   Overcast
5:55 PM 60.8 °F 53.6 °F 77% 29.74 in 10.0 mi SSW 18.4 mph 24.2 mph N/A   Overcast
6:55 PM 59.0 °F 53.6 °F 82% 29.75 in 10.0 mi SSW 12.7 mph - N/A   Overcast
7:15 PM 59.0 °F 53.6 °F 82% 29.76 in 10.0 mi SSW 12.7 mph 19.6 mph N/A   Overcast
7:35 PM 60.8 °F 53.6 °F 77% 29.77 in 10.0 mi SSW 12.7 mph 21.9 mph N/A   Overcast
7:55 PM 60.8 °F 53.6 °F 77% 29.76 in 10.0 mi SSW 15.0 mph 23.0 mph N/A   Overcast
8:15 PM 60.8 °F 53.6 °F 77% 29.77 in 10.0 mi SW 12.7 mph 18.4 mph N/A   Overcast
8:35 PM 60.8 °F 53.6 °F 77% 29.77 in 10.0 mi SSW 12.7 mph 24.2 mph N/A   Overcast
8:55 PM 60.8 °F 53.6 °F 77% 29.77 in 10.0 mi SSW 20.7 mph 25.3 mph N/A   Mostly Cloudy
9:15 PM 60.8 °F 53.6 °F 77% 29.77 in 10.0 mi SSW 10.4 mph 21.9 mph N/A   Scattered Clouds
9:35 PM 60.8 °F 55.4 °F 82% 29.77 in 10.0 mi SSW 10.4 mph 23.0 mph N/A   Scattered Clouds
9:55 PM 60.8 °F 55.4 °F 82% 29.77 in 10.0 mi SW 16.1 mph 23.0 mph N/A   Mostly Cloudy
10:15 PM 60.8 °F 55.4 °F 82% 29.77 in 10.0 mi SSW 11.5 mph 21.9 mph N/A   Mostly Cloudy
10:35 PM 60.8 °F 55.4 °F 82% 29.77 in 10.0 mi SSW 11.5 mph 17.3 mph N/A   Scattered Clouds
10:55 PM 60.8 °F 55.4 °F 82% 29.77 in 10.0 mi SSW 10.4 mph 19.6 mph N/A   Scattered Clouds
11:15 PM 60.8 °F 55.4 °F 82% 29.76 in 10.0 mi SW 11.5 mph 16.1 mph N/A   Scattered Clouds
11:35 PM 60.8 °F 55.4 °F 82% 29.75 in 10.0 mi SSW 13.8 mph 19.6 mph N/A   Scattered Clouds
11:55 PM 60.8 °F 55.4 °F 82% 29.75 in 10.0 mi SW 12.7 mph 18.4 mph N/A   Clear